Time,TemperatureF,DewpointF,PressureIn,WindDirection,WindDirectionDegrees,WindSpeedMPH,WindSpeedGustMPH,Humidity,HourlyPrecipIn,Conditions,Clouds,dailyrainin,SoftwareType,DateUTC
2014-03-11 00:23:00,56.0,41.0,29.47,WSW,245,0.0,0.0,57,0.00,,,0.00,,2014-03-11 04:23:00,
2014-03-11 00:52:00,56.0,42.0,29.47,WSW,245,0.0,2.0,59,0.00,,,0.00,,2014-03-11 04:52:00,
2014-03-11 01:23:00,54.0,41.0,29.46,WSW,245,0.0,0.0,62,0.00,,,0.00,,2014-03-11 05:23:00,
2014-03-11 01:52:00,55.0,42.0,29.45,SSW,213,0.0,2.0,62,0.00,,,0.00,,2014-03-11 05:52:00,
2014-03-11 02:22:00,55.0,43.0,29.45,SSW,213,0.0,0.0,63,0.00,,,0.00,,2014-03-11 06:22:00,
2014-03-11 02:53:00,53.0,42.0,29.45,SSW,213,0.0,0.0,65,0.00,,,0.00,,2014-03-11 06:53:00,
2014-03-11 03:22:00,51.0,42.0,29.45,SSW,213,0.0,0.0,70,0.00,,,0.00,,2014-03-11 07:22:00,
2014-03-11 03:52:00,50.0,42.0,29.44,SSW,213,0.0,1.0,73,0.00,,,0.00,,2014-03-11 07:52:00,
2014-03-11 04:22:00,50.0,43.0,29.45,West,262,0.0,3.0,76,0.00,,,0.00,,2014-03-11 08:22:00,
2014-03-11 04:52:00,50.0,43.0,29.44,West,268,0.0,3.0,76,0.00,,,0.00,,2014-03-11 08:52:00,
2014-03-11 05:22:00,51.0,43.0,29.44,West,278,0.0,1.0,73,0.00,,,0.00,,2014-03-11 09:22:00,
2014-03-11 05:53:00,51.0,43.0,29.45,NNE,24,0.0,3.0,73,0.00,,,0.00,,2014-03-11 09:53:00,
2014-03-11 06:23:00,51.0,43.0,29.45,ESE,112,0.0,0.0,73,0.00,,,0.00,,2014-03-11 10:23:00,
2014-03-11 06:53:00,50.0,42.0,29.45,ESE,112,0.0,0.0,73,0.00,,,0.00,,2014-03-11 10:53:00,
2014-03-11 07:23:00,47.0,41.0,29.45,ESE,112,0.0,0.0,78,0.00,,,0.00,,2014-03-11 11:23:00,
2014-03-11 07:52:00,45.0,40.0,29.45,ESE,112,0.0,0.0,83,0.00,,,0.00,,2014-03-11 11:52:00,
2014-03-11 08:22:00,43.0,39.0,29.46,ESE,112,0.0,0.0,85,0.00,,,0.00,,2014-03-11 12:22:00,
2014-03-11 08:53:00,44.0,40.0,29.46,ESE,112,0.0,0.0,86,0.00,,,0.00,,2014-03-11 12:53:00,
2014-03-11 09:22:00,49.0,44.0,29.48,South,187,0.0,0.0,84,0.00,,,0.00,,2014-03-11 13:22:00,
2014-03-11 10:22:00,62.0,48.0,29.49,SW,233,1.0,5.0,61,0.00,,,0.00,,2014-03-11 14:22:00,
2014-03-11 10:52:00,65.0,49.0,29.49,WSW,239,2.0,5.0,56,0.00,,,0.00,,2014-03-11 14:52:00,
2014-03-11 19:52:00,70.0,45.0,29.36,SSW,201,0.0,0.0,41,0.00,,,0.00,,2014-03-11 23:52:00,
2014-03-11 20:22:00,66.0,45.0,29.37,SSW,201,0.0,1.0,46,0.00,,,0.00,,2014-03-12 00:22:00,
2014-03-11 20:42:00,65.0,45.0,29.37,SSW,201,0.0,1.0,48,0.00,,,0.00,,2014-03-12 00:42:00,
2014-03-11 20:52:00,64.0,44.0,29.37,SSW,201,0.0,0.0,49,0.00,,,0.00,,2014-03-12 00:52:00,
2014-03-11 21:22:00,62.0,45.0,29.38,SSW,201,0.0,0.0,53,0.00,,,0.00,,2014-03-12 01:22:00,
2014-03-11 21:42:00,60.0,44.0,29.38,SSW,201,0.0,1.0,56,0.00,,,0.00,,2014-03-12 01:42:00,
2014-03-11 21:53:00,59.0,44.0,29.38,SSW,201,0.0,0.0,58,0.00,,,0.00,,2014-03-12 01:53:00,
2014-03-11 22:22:00,58.0,45.0,29.39,SSW,201,0.0,1.0,61,0.00,,,0.00,,2014-03-12 02:22:00,
2014-03-11 22:42:00,58.0,45.0,29.38,SSW,201,0.0,0.0,62,0.00,,,0.00,,2014-03-12 02:42:00,
2014-03-11 22:52:00,58.0,45.0,29.38,SSW,201,0.0,0.0,61,0.00,,,0.00,,2014-03-12 02:52:00,
2014-03-11 23:22:00,58.0,45.0,29.38,SSW,201,0.0,1.0,63,0.00,,,0.00,,2014-03-12 03:22:00,
2014-03-11 23:53:00,57.0,45.0,29.39,SSW,201,0.0,1.0,65,0.00,,,0.00,,2014-03-12 03:53:00,